Torrington, WY

9:39 AM MST on February 24, 2018 (GMT -0700)
Torrington Municipal

Weather History for KTOR - April, 2013

Change the Weather History Date:

Monday, April 15, 2013

  Actual Average Record
Temperature  
Mean Temperature 28 °F 46 °F  
Max Temperature 34 °F 61 °F 88 °F (2002)
Min Temperature 22 °F 32 °F 20 °F (1999)
Degree Days  
Heating Degree Days 37 18  
Month to date heating degree days 397 310  
Since 1 July heating degree days 5862 5994  
Cooling Degree Days 0 0  
Month to date cooling degree days 0 0  
Year to date cooling degree days 0 0  
Moisture  
Dew Point 16 °F    
Average Humidity 60    
Maximum Humidity 77    
Minimum Humidity 43    
Precipitation  
Precipitation T in 0.06 in 0.75 in (2009)
Month to date precipitation 0.38 0.68  
Year to date precipitation 0.92 2.03  
Sea Level Pressure  
Sea Level Pressure 29.97 in    
Wind  
Wind Speed 8 mph (NNE)    
Max Wind Speed 17 mph    
Max Gust Speed 21 mph    
Visibility 10 miles    
Events      
T = Trace of Precipitation, MM = Missing Value Source: NWS Daily Summary

Daily Weather History Graph

Daily Weather History Graph

Search for Another Location

Airport or City:

Trip Planner

Search our weather history database for the weather conditions in past years. The results will help you decide how hot, cold, wet, or windy it might be!

Date:

Astronomy

Apr. 15, 2013 Rise Set
Actual Time 6:15 AM MDT 7:38 PM MDT
Civil Twilight 5:46 AM MDT 8:07 PM MDT
Nautical Twilight 5:11 AM MDT 8:42 PM MDT
Astronomical Twilight 4:34 AM MDT 9:19 PM MDT
Moon 9:40 AM MDT (4/15) No Moon Set
Length of Visible Light 14h 20m
Length of Day
13h 22m
Waxing Crescent, 25% of the Moon is Illuminated
Apr 15
Waxing Crescent
Apr 18
First Quarter
Apr 25
Full
May 2
Last Quarter
May 9
New

Hourly Weather History & Observations

Time (MDT) Temp. Windchill Dew Point Humidity Pressure Visibility Wind Dir Wind Speed Gust Speed Precip Events Conditions
12:53 AM 26.1 °F 16.8 °F 19.0 °F 75% 29.82 in 10.0 mi NW 9.2 mph - N/A   Clear
1:53 AM 25.0 °F 18.1 °F 18.0 °F 75% 29.84 in 10.0 mi North 5.8 mph - N/A   Clear
2:53 AM 24.1 °F 18.2 °F 17.1 °F 75% 29.86 in 10.0 mi NNW 4.6 mph - N/A   Clear
3:53 AM 21.9 °F 14.5 °F 16.0 °F 78% 29.88 in 10.0 mi NNE 5.8 mph - N/A   Clear
4:53 AM 21.9 °F 11.0 °F 16.0 °F 78% 29.86 in 10.0 mi North 10.4 mph - N/A   Scattered Clouds
5:53 AM 23.0 °F 14.7 °F 16.0 °F 74% 29.88 in 10.0 mi NNW 6.9 mph - N/A   Overcast
6:53 AM 23.0 °F 13.1 °F 16.0 °F 74% 29.90 in 10.0 mi NNW 9.2 mph - N/A   Overcast
7:53 AM 24.1 °F 13.7 °F 15.1 °F 69% 29.94 in 10.0 mi North 10.4 mph - N/A   Overcast
8:53 AM 26.1 °F 15.6 °F 15.1 °F 63% 29.95 in 10.0 mi North 11.5 mph - N/A   Overcast
9:53 AM 27.0 °F 19.5 °F 15.1 °F 61% 29.95 in 10.0 mi NNW 6.9 mph - N/A   Overcast
10:53 AM 28.9 °F 18.6 °F 15.1 °F 56% 29.94 in 10.0 mi North 12.7 mph - N/A   Overcast
11:53 AM 30.9 °F 20.2 °F 12.9 °F 47% 29.92 in 10.0 mi North 15.0 mph 20.7 mph N/A   Overcast
12:53 PM 30.9 °F 22.2 °F 14.0 °F 50% 29.96 in 10.0 mi NE 10.4 mph - N/A   Overcast
1:53 PM 33.1 °F 24.4 °F 16.0 °F 50% 29.96 in 10.0 mi NNE 11.5 mph - 0.00 in   Overcast
2:53 PM 33.1 °F 30.0 °F 16.0 °F 50% 29.97 in 10.0 mi North 3.5 mph - N/A   Overcast
3:53 PM 33.1 °F 26.9 °F 14.0 °F 46% 29.99 in 10.0 mi NNE 6.9 mph - N/A   Overcast
4:53 PM 33.1 °F 26.9 °F 15.1 °F 48% 29.99 in 10.0 mi NNE 6.9 mph - N/A   Overcast
5:53 PM 33.1 °F 28.7 °F 15.1 °F 48% 30.02 in 10.0 mi NE 4.6 mph - N/A   Overcast
6:53 PM 32.0 °F 28.7 °F 15.1 °F 50% 30.05 in 10.0 mi NE 3.5 mph - N/A   Overcast
7:53 PM 30.0 °F 25.2 °F 18.0 °F 61% 30.08 in 10.0 mi ESE 4.6 mph - N/A   Scattered Clouds
8:53 PM 30.0 °F 24.1 °F 19.0 °F 64% 30.07 in 10.0 mi East 5.8 mph - N/A   Overcast
9:53 PM 30.0 °F 23.2 °F 23.0 °F 75% 30.09 in 10.0 mi NE 6.9 mph - N/A   Overcast
10:53 PM 28.9 °F 21.1 °F 18.0 °F 64% 30.12 in 10.0 mi NE 8.1 mph - N/A   Overcast
11:53 PM 28.0 °F 18.6 °F 18.0 °F 66% 30.12 in 10.0 mi ENE 10.4 mph - N/A   Overcast